Wind_Speed
21 21 21 21 20 20 20 20 19 19 19 19 19 19 19 19 19 19 19 20 20 20 21 22 22 23 23 23 23 23 23 24 24 24 25 25 25 25
21 21 20 21 22 22 22 22 22 22 21 21 21 22 22 21 22 22 22 23 24 24 24 24 25 25 26 26 27 27 27 27 27 27 28 28 29 29
21 21 22 22 23 24 24 24 24 24 24 24 24 23 24 24 24 24 24 26 26 27 27 27 27 28 28 29 30 30 30 30 31 31 32 32 32 33
22 22 23 24 24 25 25 26 26 26 26 26 25 25 25 26 26 27 26 27 27 28 29 30 30 31 31 31 32 32 32 33 33 34 34 35 35 35
23 23 24 24 25 25 26 27 27 27 27 27 27 27 27 27 28 29 29 29 29 29 30 31 31 32 32 33 33 34 35 35 36 37 38 38 38 39
23 24 24 24 25 26 26 26 27 28 28 28 28 29 29 30 30 31 30 31 32 32 31 32 32 33 34 35 36 37 38 39 40 40 41 41 42 43
23 24 24 25 26 27 27 28 29 29 30 30 30 31 32 33 33 33 32 33 33 34 35 35 36 36 37 38 39 40 41 42 42 43 43 43 44 45
24 25 26 27 28 29 29 30 30 31 32 32 33 33 34 34 34 34 35 35 36 37 38 38 39 39 40 41 41 41 42 43 44 44 45 46 46 47
25 26 26 27 28 28 28 30 31 31 31 32 33 34 34 34 35 36 36 37 38 38 39 39 41 41 42 43 43 44 45 45 45 47 47 48 48 49
26 27 27 28 28 28 28 29 29 30 32 33 34 35 35 36 37 37 37 38 39 41 42 42 43 44 45 46 46 47 47 48 49 49 50 51 52 53
26 27 28 28 28 29 29 29 30 31 32 33 34 35 36 37 38 38 39 41 42 43 44 45 46 46 48 49 49 50 51 51 52 53 54 54 55 56
26 27 28 29 29 30 30 30 30 31 33 34 35 36 36 37 38 40 41 42 44 44 45 47 48 50 50 51 52 53 53 54 55 55 55 55 55 55
26 27 28 29 30 30 31 32 32 33 34 35 35 36 37 38 40 41 43 45 46 48 49 50 52 53 54 53 53 54 54 54 55 55 55 54 53 53
27 28 28 29 30 31 32 33 34 34 35 36 37 38 39 40 42 43 44 46 47 48 49 51 52 52 53 53 52 53 53 53 53 53 52 51 51 51
27 28 30 30 30 31 32 33 34 35 36 37 38 38 40 41 42 43 44 46 47 48 49 50 50 51 51 51 51 51 50 50 50 49 49 49 49 49
28 29 30 31 33 34 34 35 35 36 37 38 39 39 41 42 44 45 45 46 47 48 49 49 50 49 49 49 49 48 47 46 46 46 46 47 47 46
29 30 31 32 33 34 35 35 36 36 37 38 39 41 42 42 43 44 44 45 45 45 45 45 45 45 44 44 43 43 43 43 43 43 43 43 43 43
31 31 32 33 34 35 35 35 36 36 37 39 40 41 41 42 43 43 44 44 44 44 43 42 42 41 41 41 42 41 40 39 39 39 39 39 38 38
31 32 32 33 34 34 34 34 35 36 37 38 39 40 41 42 42 42 42 42 41 42 41 41 40 40 39 39 39 39 39 38 37 37 36 36 35 35
31 32 32 32 33 34 34 35 36 36 37 39 40 40 40 40 40 40 40 39 39 40 39 39 39 39 38 37 37 36 36 36 35 34 34 34 33 33
31 32 32 33 34 35 35 36 37 37 38 39 39 39 39 38 38 38 38 38 38 38 38 37 37 36 36 35 34 33 32 32 31 32 32 31 31 30
31 32 32 33 34 35 35 36 36 37 38 38 38 38 38 37 36 36 36 36 36 36 35 35 34 33 33 31 30 30 29 29 29 29 29 28 27 26
31 31 32 33 33 34 34 35 36 36 37 37 37 36 36 35 35 34 34 34 34 33 33 32 31 30 29 29 28 27 27 27 26 26 26 26 25 24
Wind_Direction
253 253 253 254 256 261 265 266 267 269 268 269 271 272 274 273 274 274 277 279 280 283 283 284 284 284 284 284 286 287 288 288 287 286 286 286 286 285
256 256 258 256 258 261 264 265 267 268 269 269 270 272 274 274 274 275 276 277 280 281 281 282 283 284 284 285 285 286 286 286 286 285 284 284 284 284
259 259 259 260 261 263 265 266 267 268 269 271 272 273 274 276 276 276 277 278 279 280 281 282 284 284 284 285 285 285 285 284 284 284 284 285 284 283
259 260 262 264 264 266 267 268 269 271 272 272 272 273 276 279 279 279 280 279 279 279 281 282 283 284 285 285 286 285 285 284 284 284 285 285 284 284
258 261 265 264 266 268 269 269 270 272 274 273 273 274 275 278 280 280 281 282 282 281 282 283 284 285 285 285 286 285 286 285 285 285 284 284 283 283
261 263 267 269 269 270 271 270 270 272 274 274 274 276 278 279 280 280 281 283 283 283 283 283 284 285 285 285 286 286 286 285 286 285 284 283 282 282
265 266 267 269 269 270 272 271 271 272 273 274 274 276 278 280 280 280 280 281 283 283 284 285 286 285 285 286 286 286 285 285 285 285 284 283 283 283
267 269 268 269 270 272 273 272 272 272 272 275 275 277 278 280 281 281 280 281 282 283 285 286 286 286 286 286 286 286 286 286 287 287 286 284 284 284
270 273 273 273 273 274 275 274 274 275 275 276 277 278 279 280 282 282 282 282 283 285 286 287 287 288 288 287 287 287 287 287 287 286 286 285 285 284
273 276 278 278 278 277 278 277 276 276 277 279 279 280 281 282 282 283 284 284 284 286 287 287 287 288 288 288 287 287 287 287 286 286 286 286 285 285
275 276 278 277 278 279 279 280 280 280 281 281 282 283 283 283 282 284 285 285 285 286 287 288 288 288 288 288 288 288 288 287 287 287 286 286 285 285
275 277 279 280 281 282 282 283 283 284 284 283 282 282 283 283 284 285 286 286 287 287 288 288 288 288 288 289 289 289 289 288 287 287 286 286 285 285
280 281 283 284 284 285 285 286 286 285 285 284 284 285 285 286 286 287 287 287 288 288 288 288 289 289 289 289 289 289 289 288 288 287 287 286 285 285
283 284 286 286 286 287 287 287 287 287 287 287 287 287 287 288 288 289 290 290 290 291 290 290 290 291 291 291 291 290 290 290 289 288 287 286 285 286
288 288 289 290 290 291 291 291 291 291 291 291 291 291 291 291 292 292 292 292 292 292 293 293 293 293 293 292 291 291 290 290 289 288 287 286 286 285
292 292 293 293 293 293 293 294 294 293 293 293 293 293 293 294 294 293 294 294 295 295 296 295 295 294 294 293 292 292 291 291 290 289 288 288 287 286
296 295 296 295 296 296 295 295 295 296 295 294 294 295 296 297 297 296 296 296 297 296 296 296 295 295 295 294 295 294 294 292 291 291 290 289 288 287
298 298 298 298 297 297 296 296 296 296 295 295 296 297 298 299 299 298 298 298 298 298 298 297 296 297 297 296 296 295 294 293 291 291 292 292 291 290
300 300 300 299 299 298 298 298 298 298 298 299 300 300 300 301 301 300 300 300 300 301 300 299 298 298 297 296 296 296 294 294 293 293 293 293 293 291
301 301 301 301 301 301 300 301 302 302 302 303 303 303 302 302 302 302 302 302 301 302 302 301 300 299 300 299 298 298 297 297 294 293 294 295 294 294
302 303 303 303 303 304 303 303 304 304 304 304 304 303 303 303 303 304 304 303 303 303 303 303 302 301 301 301 300 300 299 299 298 297 297 298 298 298
304 304 304 304 304 305 305 305 305 305 305 305 304 304 304 304 305 305 306 306 306 306 306 306 305 303 302 301 301 301 301 302 302 302 302 303 303 303
304 304 304 305 305 305 306 306 307 307 306 306 306 307 307 307 307 308 308 309 309 309 309 308 307 306 305 304 303 303 303 303 304 304 304 306 306 306
Height
5876 5877 5878 5879 5880 5881 5881 5881 5882 5882 5883 5883 5883 5883 5882 5883 5882 5882 5882 5881 5880 5880 5880 5879 5878 5877 5877 5876 5875 5874 5872 5871 5870 5869 5868 5867 5866 5865
5872 5873 5873 5874 5875 5876 5876 5876 5876 5877 5877 5878 5878 5878 5877 5877 5877 5876 5876 5876 5875 5875 5874 5873 5872 5871 5870 5869 5868 5867 5866 5865 5863 5862 5861 5860 5859 5857
5867 5868 5869 5869 5870 5871 5871 5871 5871 5871 5872 5872 5872 5872 5871 5871 5871 5870 5870 5870 5869 5868 5867 5866 5865 5864 5863 5862 5861 5859 5858 5857 5855 5854 5853 5852 5850 5849
5862 5863 5863 5864 5865 5865 5865 5865 5865 5865 5866 5866 5866 5866 5865 5865 5864 5863 5863 5863 5862 5861 5860 5859 5858 5857 5855 5854 5853 5851 5850 5848 5846 5845 5844 5842 5841 5839
5857 5858 5858 5858 5858 5859 5859 5859 5859 5859 5859 5859 5859 5859 5859 5858 5857 5856 5855 5855 5854 5854 5853 5851 5850 5849 5847 5845 5844 5842 5841 5839 5837 5835 5833 5832 5830 5829
5851 5852 5852 5852 5852 5852 5852 5852 5852 5852 5852 5852 5852 5852 5851 5850 5850 5849 5848 5847 5845 5845 5844 5843 5841 5840 5838 5836 5834 5832 5830 5828 5826 5824 5822 5820 5819 5817
5846 5846 5846 5846 5846 5846 5845 5845 5845 5845 5844 5844 5844 5844 5843 5842 5841 5840 5839 5838 5836 5835 5834 5833 5831 5830 5828 5826 5824 5821 5819 5816 5814 5812 5809 5808 5806 5804
5840 5840 5840 5840 5839 5839 5838 5837 5837 5837 5837 5836 5836 5836 5835 5833 5832 5830 5830 5829 5827 5826 5824 5822 5820 5818 5816 5814 5812 5809 5807 5804 5801 5799 5796 5794 5792 5790
5835 5834 5833 5833 5833 5832 5831 5830 5829 5829 5829 5828 5827 5826 5825 5824 5822 5821 5819 5818 5817 5815 5813 5811 5809 5806 5804 5802 5799 5797 5794 5791 5788 5785 5782 5780 5777 5775
5828 5828 5828 5827 5826 5825 5824 5823 5822 5821 5820 5820 5819 5817 5816 5814 5812 5811 5809 5807 5806 5804 5802 5800 5797 5795 5792 5788 5785 5783 5780 5777 5773 5770 5767 5764 5761 5759
5822 5822 5821 5820 5819 5818 5817 5816 5814 5813 5812 5810 5809 5808 5806 5804 5802 5800 5798 5796 5794 5792 5789 5786 5784 5781 5778 5775 5771 5768 5764 5761 5758 5754 5751 5748 5744 5741
5816 5815 5814 5813 5812 5810 5809 5808 5806 5805 5803 5801 5800 5798 5796 5794 5792 5790 5787 5784 5782 5779 5776 5773 5770 5767 5764 5761 5756 5752 5749 5745 5741 5737 5734 5730 5726 5723
5809 5808 5807 5806 5805 5803 5801 5799 5798 5796 5794 5792 5790 5788 5786 5783 5780 5777 5774 5771 5768 5765 5762 5758 5755 5751 5748 5745 5741 5736 5731 5727 5724 5720 5716 5712 5708 5705
5802 5801 5800 5798 5797 5795 5793 5791 5789 5786 5784 5782 5780 5777 5774 5771 5768 5765 5762 5758 5754 5751 5747 5743 5739 5735 5731 5727 5723 5719 5714 5710 5706 5702 5699 5695 5691 5688
5795 5794 5792 5790 5788 5786 5784 5782 5779 5777 5774 5772 5769 5766 5763 5759 5756 5753 5749 5745 5741 5736 5732 5728 5724 5719 5715 5710 5706 5702 5698 5694 5689 5686 5682 5678 5675 5671
5788 5786 5784 5782 5780 5778 5775 5772 5770 5767 5764 5761 5757 5754 5751 5747 5744 5740 5736 5732 5727 5723 5718 5713 5709 5704 5699 5694 5690 5686 5682 5678 5675 5670 5667 5663 5659 5655
5781 5778 5776 5774 5771 5768 5765 5762 5759 5756 5753 5750 5746 5743 5739 5735 5731 5727 5722 5718 5713 5709 5704 5699 5694 5689 5684 5680 5676 5672 5668 5664 5660 5656 5653 5649 5645 5641
5772 5770 5767 5764 5761 5758 5755 5752 5749 5746 5742 5738 5734 5731 5726 5722 5718 5713 5709 5704 5700 5695 5690 5685 5681 5677 5672 5667 5663 5659 5655 5651 5647 5643 5639 5636 5633 5628
5764 5761 5758 5755 5752 5748 5745 5742 5738 5735 5731 5727 5723 5718 5714 5710 5705 5700 5696 5691 5686 5681 5677 5672 5668 5664 5661 5657 5652 5646 5643 5639 5635 5631 5627 5623 5620 5617
5755 5752 5749 5745 5742 5739 5735 5731 5728 5724 5720 5715 5711 5706 5702 5697 5693 5688 5683 5679 5674 5670 5665 5660 5656 5652 5648 5644 5640 5636 5631 5627 5624 5621 5617 5613 5609 5606
5746 5743 5740 5736 5733 5729 5725 5721 5717 5713 5709 5704 5699 5695 5690 5686 5681 5677 5672 5667 5663 5658 5654 5650 5645 5641 5637 5633 5629 5626 5621 5617 5613 5610 5607 5603 5600 5597
5737 5734 5730 5727 5723 5719 5715 5711 5706 5702 5698 5693 5688 5684 5679 5675 5670 5666 5662 5657 5653 5648 5644 5639 5635 5631 5627 5623 5620 5616 5613 5609 5605 5601 5598 5595 5591 5588
5729 5725 5722 5718 5714 5710 5705 5701 5697 5692 5688 5683 5678 5674 5669 5665 5660 5656 5652 5647 5643 5639 5634 5630 5626 5622 5618 5615 5612 5608 5605 5602 5598 5595 5591 5587 5584 5581